OpenBCM V1.08-5-g2f4a (Linux)

Packet Radio Mailbox

IZ3LSV

[San Dona' di P. JN]

 Login: GUEST





  
I0OJJ  > KEPS     07.12.25 12:00l 311 Lines 14856 Bytes #172 (0) @ AMSAT
BID : ORB25337.1
Read: GUEST
Subj: 2Line Orbital Elements 25337.AMSAT
Path: IZ3LSV<ED1ZAC<LU1DBQ<LU9DCE<VE3TOK<IR0AAB<I0OJJ
Sent: 251203/0021z @:I0OJJ.ITA.EU [Rome] obcm1.08-11-2-gbfe9
From: I0OJJ @ I0OJJ.ITA.EU (Gustavo)
To:   KEPS @ AMSAT
X-Info: This message was generated automatically


QST de W1STR

AMSAT Orbital Elements for Amateur Satellites in TLE Format
From Orbital Analysis Office
New England Sci-Tech STEM Education Center
Natick MA December 03, 2025
To all radio amateurs


These element sets describe the orbits of various satellites 
in use by the amateur radio community. For details see:
www.amsat.org/keplerian-elements-formats/

A daily update of element sets is available at:
www.amsat.org/tle/daily-bulletin.txt
or without bulletin text:
www.amsat.org/tle/dailytle.txt


AO-07
1 07530U 74089B   25336.78523087 -.00000025  00000-0  13561-3 0  9999
2 07530 101.9968 342.9483 0012316 145.3470  28.0695 12.53693889335905
UO-11
1 14781U 84021B   25336.85513567  .00002754  00000-0  29052-3 0  9994
2 14781  97.7792 300.0384 0009173 109.2849 250.9362 14.90086263227888
AO-27
1 22825U 93061C   25336.71934615  .00000191  00000-0  89758-4 0  9995
2 22825  98.7161  38.9623 0007666 322.6021  37.4628 14.30870621678907
FO-29
1 24278U 96046B   25336.64369473  .00000012  00000-0  50532-4 0  9991
2 24278  98.5468 207.1335 0348915 246.2279 110.1911 13.53261772446586
GO-32
1 25397U 98043D   25336.59139907  .00000143  00000-0  82024-4 0  9990
2 25397  98.9913 319.5698 0002253  74.0884 286.0542 14.24372378423345
ISS
1 25544U 98067A   25336.09225229  .00009217  00000-0  17381-3 0  9992
2 25544  51.6314 195.1903 0003639 193.8265 166.2625 15.49237019541206
NO-44
1 26931U 01043C   25336.46817192  .00000280  00000-0  13538-3 0  9999
2 26931  67.0520  33.0416 0007395 270.5423  89.4832 14.31845615262289
SO-50
1 27607U 02058C   25336.82084867  .00002705  00000-0  34092-3 0  9994
2 27607  64.5547  16.2545 0071739 298.4362  60.9527 14.82322703235347
CO-55
1 27844U 03031E   25336.47315030  .00000519  00000-0  24427-3 0  9991
2 27844  98.6767 342.5087 0010292  41.7305 318.4657 14.24164901163672
CO-57
1 27848U 03031J   25336.50497441  .00000437  00000-0  21139-3 0  9992
2 27848  98.6797 342.4103 0010424  58.4266 301.7928 14.23475254163395
RS-22
1 27939U 03042A   25336.87422076  .00001886  00000-0  30220-3 0  9997
2 27939  98.3365 150.8124 0011537 165.8182 330.7376 14.72923250186644
CO-58
1 28895U 05043F   25336.38036176  .00002756  00000-0  44825-3 0  9993
2 28895  98.2716 123.2835 0015380 108.9643 251.3231 14.71830708 72790
CO-65
1 32785U 08021C   25336.87783160  .00009615  00000-0  64822-3 0  9991
2 32785  97.8069 309.8282 0009102 346.7671  13.3315 15.06842984955602
CO-66
1 32791U 08021J   25336.86436134  .00022351  00000-0  90432-3 0  9991
2 32791  97.7433 321.6743 0001307 317.7893  42.3243 15.24720954957291
RS-30
1 32953U 08025A   25336.81172757  .00000032  00000-0  15889-3 0  9993
2 32953  82.5009 117.5975 0019292  22.6762 337.5166 12.43171751795296
SRMSAT
1 37841U 11058D   25336.54996846  .00000476  00000-0  11468-3 0  9998
2 37841  19.9698 169.6251 0011742 200.5325 183.2256 14.11505758730003
ZACUBE-1
1 39417U 13066B   25336.84577973  .00007325  00000-0  59984-3 0  9994
2 39417  97.8058 293.3759 0041402 178.8349 181.2977 14.98927019651290
Delfi-N3xt
1 39428U 13066N   25336.74652110  .00008856  00000-0  83476-3 0  9995
2 39428  97.8337 252.7091 0080346 137.8847 222.8584 14.91581847645307
GOMX-1
1 39430U 13066Q   25336.81773221  .00003333  00000-0  51294-3 0  9991
2 39430  97.6601 184.5635 0130469 348.5283  11.2957 14.68506065641083
LO-74
1 39440U 13066AA  25336.81275691  .00007993  00000-0  77196-3 0  9995
2 39440  97.8690 280.4984 0058901 319.5697  40.1151 14.91794645647693
AO-73
1 39444U 13066AE  25336.82034497  .00010400  00000-0  71048-3 0  9994
2 39444  97.8048 299.9806 0040071 147.7777 212.5910 15.05696235650077
DTUSAT-2
1 40030U 14033W   25336.87265854  .00010821  00000-0  64274-3 0  9990
2 40030  98.0745 317.7862 0008269 170.1667 189.9725 15.11473136622990
EO-80
1 40032U 14033Y   25336.81762295  .00011618  00000-0  68817-3 0  9999
2 40032  98.0624 317.1357 0009516 116.3203 243.9004 15.11543036622960
LILACSAT-2
1 40908U 15049K   25336.82361742  .00019250  00000-0  41975-3 0  9998
2 40908  97.4925   1.9042 0006368 239.2262 120.8359 15.44267537565372
IO-86
1 40931U 15052B   25151.18580175  .00001241  00000-0  78118-4 0  9996
2 40931   6.0006  24.0987 0012733 338.8432  21.1169 14.78805930523159
Horyu-4
1 41340U 16012D   25336.83081595  .00052810  00000-0  92496-3 0  9999
2 41340  30.9954  17.9474 0006491 137.0636 223.0520 15.49288451540013
Lapan A3
1 41603U 16040E   25336.89407288  .00005207  00000-0  17372-3 0  9997
2 41603  97.1423 334.8101 0010906   9.9936 350.1521 15.31429100524750
CAS-2T
1 41847U 16066G   25336.78467983  .00001356  00000-0  20009-3 0  9993
2 41847  98.4050  49.6218 0344029   5.3317 355.1389 14.44093882476445
TechnoSat
1 42829U 17042E   25336.67788529  .00005675  00000-0  42130-3 0  9996
2 42829  97.4013 137.3192 0018936  46.1051 314.1735 15.03273206457167
AO-91
1 43017U 17073E   25336.62974734  .00015290  00000-0  72779-3 0  9996
2 43017  97.4964 203.0560 0160332 285.5112  72.8463 15.08515760435719
S-Net D
1 43186U 18014G   25336.70972022  .00008065  00000-0  44554-3 0  9998
2 43186  97.5490 237.8795 0008451 351.6212   8.4877 15.14147761429003
S-Net B
1 43187U 18014H   25336.71761846  .00008342  00000-0  46092-3 0  9997
2 43187  97.5497 237.8670 0008984 346.1898  13.9087 15.14124563429002
S-Net A
1 43188U 18014J   25336.70947021  .00008273  00000-0  45678-3 0  9990
2 43188  97.5503 238.0337 0008886 346.7886  13.3111 15.14154529429005
S-Net C
1 43189U 18014K   25336.72055207  .00008438  00000-0  46614-3 0  9993
2 43189  97.5522 238.0886 0010049 337.6070  22.4722 15.14119866427556
Ten-Koh
1 43677U 18084G   25336.45070308  .00004721  00000-0  36773-3 0  9997
2 43677  98.0723 155.6550 0009381  52.0591 308.1479 15.01706692386622
PO-101
1 43678U 18084H   25336.84207144  .00003557  00000-0  29597-3 0  9993
2 43678  98.1021 159.9073 0007378  70.1848 290.0169 14.99352283386783
QO-100
1 43700U 18090A   25336.72214730  .00000000  00000-0  00000+0 0  9996
2 43700   0.0222 340.9582 0001545 281.5467  95.0564  1.00272439 25702
MinXSS-2
1 43758U 18099A   25336.77578126  .00031406  00000-0  96129-3 0  9990
2 43758  97.4822  44.0106 0008819 249.7308 110.2986 15.33733369383896
AO-95
1 43770U 18099N   25336.40310654  .00014055  00000-0  62662-3 0  9990
2 43770  97.4699  32.7651 0008828 326.7950  33.2730 15.21491883383249
SNUSat 2
1 43782U 18099AA  25336.11269079  .00010903  00000-0  53915-3 0  9994
2 43782  97.4378  27.7033 0009743 264.1274  95.8849 15.17962051383098
SnugLite
1 43784U 18099AC  25336.12987848  .00013762  00000-0  60749-3 0  9997
2 43784  97.4192  27.7302 0001659 256.3350 103.7701 15.21868179383298
ITASat 1
1 43786U 18099AE  25336.66484987  .00009714  00000-0  51053-3 0  9994
2 43786  97.4349  27.1880 0012421 322.5274  37.5092 15.15823300383106
EAGLET 1
1 43790U 18099AJ  25336.63913427  .00006690  00000-0  40435-3 0  9994
2 43790  97.4543  26.4371 0010394 309.2290  50.8016 15.10949513382632
ESEO
1 43792U 18099AL  25336.69835762  .00002042  00000-0  15426-3 0  9996
2 43792  97.4258  17.2942 0010194 286.9436  73.0672 15.03418597382270
JO-97
1 43803U 18099AX  25336.72134537  .00021238  00000-0  81866-3 0  9994
2 43803  97.4441  34.5732 0005462 242.5639 117.5044 15.26335482383589
Suomi 100
1 43804U 18099AY  25336.80097207  .00017262  00000-0  73740-3 0  9990
2 43804  97.4507  33.3417 0009823 250.4642 109.5534 15.22895379383472
ISAT
1 43879U 18111D   25336.73872828  .00046629  00000-0  11382-2 0  9991
2 43879  97.5902 256.0448 0004540 317.4730  42.6164 15.40705504380704
UWE-4
1 43880U 18111E   25336.71846441  .00032226  00000-0  98870-3 0  9999
2 43880  97.5856 252.9705 0008643 323.0521  37.0124 15.33655754380543
Sparrow
1 43881U 18111F   25336.73763580  .00051864  00000-0  11778-2 0  9994
2 43881  97.6085 259.7384 0005498   7.2422 352.8903 15.42851574380825
Prox-1
1 44339U 19036A   25336.35960198  .00018937  00000-0  21463-2 0  9998
2 44339  23.9975 343.4962 0006180 277.8607  82.1189 14.84768533344125
Taurus 1
1 44530U 19059C   25336.82680464  .00011928  00000-0  20455-2 0  9996
2 44530  98.6218 125.1354 0009170 204.4949 155.5820 14.68872874329782
Duchifat 3
1 44854U 19089C   25336.26407117  .00981686  45405-3  19464-2 0  9994
2 44854  36.9266 295.4502 0011274 211.1024 148.9083 15.98883542330464
TO-108
1 44881U 19093C   25336.87002779  .00001448  00000-0  17131-3 0  9999
2 44881  97.7771  48.7219 0014050  18.5343 341.6382 14.86066073322252
FloripaSat 1
1 44885U 19093G   25336.84534568  .00009225  00000-0  72516-3 0  9995
2 44885  97.8061  64.9925 0011364   8.4679 351.6735 15.01047508323162
RS-44
1 44909U 19096E   25336.85051248  .00000020  00000-0  39778-4 0  9993
2 44909  82.5197 110.1798 0216760 243.2986 114.5780 12.79745682277231
SALSAT
1 46495U 20068K   25336.50030292  .00010744  00000-0  41974-3 0  9998
2 46495  97.8772 323.2231 0008628 273.2028  86.8222 15.26046076285329
CSS (TIANHE-1)
1 48274U 21035A   25336.72034838  .00028026  00000-0  35828-3 0  9997
2 48274  41.4674  77.5061 0010224 315.4277  44.5738 15.58546644262466
TUBIN
1 48900U 21059X   25336.82778128  .00535834  13060-3  98404-3 0  9999
2 48900  97.6676 163.7455 0003315 288.6577  71.4341 16.01296426247730
CUTE
1 49263U 21088D   25336.82095536  .00033872  00000-0  45613-3 0  9995
2 49263  97.4367  59.2320 0004571 314.4162  45.6719 15.57772142231752
TeikyoSat 4
1 49396U 21102B   25336.85184654  .00003517  00000-0  22872-3 0  9997
2 49396  97.3909   8.8230 0010827 246.0488 113.9608 15.08567048223112
Z-Sat
1 49399U 21102E   25336.87874355  .00006307  00000-0  32804-3 0  9992
2 49399  97.3598  13.1195 0016473 207.0329 153.0048 15.16281505223676
